Flag for Montenegro Weather past 2 weeks in Podgorica, Montenegro

Now
54 °F

Overcast.


Feels Like: 54 °F
Forecast: 49 / 66 °F
Wind: 2 mph from North

Location: Podgorica Titograd

Current Time: Mar 30, 2015 at 11:40:26 AM

Latest Report: Mar 30, 2015 at 11:00 AM


Visibility: N/A

Pressure: 29.83 "Hg

Humidity: 54%

Dew point: 37 °F

Location of PodgoricaLocation

Historic Weather in Podgorica — Graph

°F

Podgorica temperature yesterday

Maximum temperature yesterday: 66 °F (at 3:30 PM)
Minimum temperature yesterday: 48 °F (at 10:30 PM)
Average temperature yesterday: 56 °F

Past Weeks' High & Low Weather Summary

 TemperatureHumidityPressure
High70 °F (Mar 26, 3:30 PM)100% (Mar 22, 11:00 PM)30.42 "Hg (Mar 22, 11:00 PM)
Low34 °F (Mar 21, 5:30 AM)17% (Mar 20, 3:00 PM)29.56 "Hg (Mar 27, 1:00 PM)
Average53 °F59%30.01 "Hg
* Reported Mar 15 9:00 AM — Mar 30 10:30 AM, Podgorica, Weather by CustomWeather, © 2015

Note: Actual official high and low records may vary slightly from our data, if they occured in-between our weather recording intervals... More about our weather records

Advertising

Podgorica weather history for previous 24 hours

 ConditionsComfort  
Time TempWeatherWind HumidityBarometerVisibility
10:30 AM
Mon, Mar 30
54 °FPartly sunny.2 mph51%29.86 "HgN/A
10:00 AM52 °FBroken clouds.3 mph50%29.83 "HgN/A
9:30 AM52 °FBroken clouds.5 mph50%29.83 "HgN/A
9:00 AM50 °FBroken clouds.6 mph54%29.86 "HgN/A
8:30 AM50 °FBroken clouds.6 mph54%29.83 "HgN/A
8:00 AM48 °FScattered clouds.6 mph62%29.86 "HgN/A
7:30 AM45 °FScattered clouds.6 mph66%29.83 "HgN/A
7:00 AM43 °FPassing clouds.5 mph66%29.86 "HgN/A
6:30 AM41 °FPassing clouds.2 mph70%29.86 "HgN/A
6:00 AM43 °FPassing clouds.3 mph71%29.86 "HgN/A
5:30 AM43 °FClear.1 mph71%29.83 "Hg10 mi
5:00 AM45 °FClear.6 mph61%29.83 "Hg10 mi
4:30 AM43 °FClear.3 mph71%29.83 "Hg10 mi
4:00 AM45 °FClear.3 mph61%29.83 "Hg10 mi
3:30 AM46 °FClear.3 mph57%29.83 "Hg10 mi
3:00 AM46 °FClear.6 mph57%29.83 "Hg10 mi
2:30 AM46 °FPassing clouds.7 mph62%29.83 "HgN/A
2:00 AM45 °FClear.7 mph71%29.86 "Hg10 mi
1:30 AM45 °FClear.6 mph76%29.86 "Hg10 mi
1:00 AM46 °FClear.2 mph76%29.86 "Hg10 mi
12:30 AM46 °FClear.5 mph76%29.83 "Hg10 mi
12:00 AM48 °FClear.1 mph76%29.83 "Hg10 mi
11:30 PM
Sun, Mar 29
52 °FClear.2 mph72%29.86 "Hg10 mi
11:00 PM48 °FClear.6 mph71%29.83 "Hg10 mi
10:30 PM48 °FClear.2 mph66%29.83 "Hg10 mi
10:00 PM50 °FPassing clouds.3 mph62%29.83 "HgN/A
9:30 PM50 °FClear.No wind67%29.83 "Hg10 mi
9:00 PM52 °FClear.3 mph62%29.83 "Hg10 mi
8:30 PM54 °FClear.1 mph54%29.83 "Hg10 mi
8:00 PM54 °FSunny.2 mph58%29.80 "Hg10 mi
7:30 PM57 °FPassing clouds.5 mph44%29.80 "HgN/A
7:00 PM61 °FPassing clouds.6 mph39%29.77 "HgN/A
6:30 PM61 °FPassing clouds.7 mph42%29.77 "HgN/A
6:00 PM63 °FPassing clouds.6 mph34%29.77 "HgN/A
5:30 PM64 °FPassing clouds.6 mph30%29.77 "HgN/A
5:00 PM64 °FPassing clouds.6 mph30%29.77 "HgN/A
4:30 PM64 °FPassing clouds.8 mph28%29.77 "HgN/A
4:00 PM64 °FPassing clouds.2 mph26%29.77 "HgN/A
3:30 PM66 °FPassing clouds.1 mph26%29.77 "HgN/A
3:00 PM64 °FPassing clouds.3 mph26%29.77 "HgN/A
2:30 PM64 °FPassing clouds.5 mph28%29.80 "HgN/A
2:00 PM63 °FPassing clouds.5 mph27%29.80 "HgN/A
1:30 PM63 °FPassing clouds.5 mph30%29.83 "HgN/A
1:00 PM61 °FPassing clouds.6 mph31%29.83 "HgN/A
12:30 PM61 °FPassing clouds.8 mph31%29.83 "HgN/A
12:00 PM61 °FPassing clouds.10 mph31%29.83 "HgN/A
11:30 AM59 °FPassing clouds.13 mph34%29.83 "HgN/A
11:00 AM59 °FPassing clouds.15 mph34%29.86 "HgN/A
Weather by CustomWeather, © 2015

See weather overviewHow to use our weather pages